CZ-6A DEB, 54505

Orbit data source: Space-Track

CZ-6A DEB, 54505 is space debris in SSO originally from a launch on Fri, 11 Nov 2022 UTC launched from the Taiyaun Space Center, China (TSC). Debris objects in space refer to the collection of defunct objects orbiting the Earth. Examples of debris include non-operational satellites, rocket bodies, and fragments generated from explosions, collisions, or faulty payload assembly.

Loading next visibility...
Identifier
54505, 2022-151JH
Orbit
SSO
Country
Flag of CNCN / PRC
Related business
Manufacturer
SAST
Mission
Spacecraft
Bus & Motor
Unknown
Mass
Unknown
Launch date (UTC)
2022-11-11 (4 years ago)
Launch vehicle
Unknown
Launch site
Taiyaun Space Center, China (TSC)
Object type
Payload
Rocket body
Debris
Shape & HBR
Unknown shape, 0.1 m
Radar Cross Section
Medium (>0.1 m² and <1 m²)

Expand to show TLE details & history
Last TLE update: 2 days ago

TLE from 2 days ago
0 CZ-6A DEB
1 54505U 22151JH  26171.44139622  .00002548  00000-0  80114-3 0  9994
2 54505  98.9206 244.7729 0070003  76.8600 284.0386 14.39972923188251
Epoch: 2026-06-20T10:35Z
TLE epoch observation values (Epoch: 2026-06-20T10:35:36.633Z)
Latitude
-0.00007°
Longitude
177.2143°
Altitude
749.732 km
Speed
7.486 km/s
True Right ascension
16h 19m 05s
True Declination
0° 00' 00"
Sunlit
Object was in full shadow at epoch
Visualization orbit readout
Latitude
Unknown
Longitude
Unknown
Altitude
Unknown
Speed
Unknown
Apparent Right ascension
Unknown
Apparent Declination
Unknown
Sunlit
N/A
Visualization observer readout
Local Sidereal Time
21:28:52
Azimuth
Unknown
Elevation
Unknown
Doppler factor
Unknown
Orbital elements
Apogee altitude
805.669 km
Perigee altitude
705.791 km
Semi-major axis
7,133.867 km
Eccentricity
0.007
Inclination
98.9206°
RAAN
244.7729°
Arg. of periapsis
76.86°
True anomaly
283.25875°
Mean anomaly
284.0386°
Eccentric anomaly
283.64884°
Mean motion
3.6021 °/min
Orbital period
99.94 mins
BSTAR
0.00080114
Loading maneuver chart data...
Computing Atmospheric mass density...
Loading historical data...
Loading historical data...
Loading historical data...
Loading historical data...
Loading historical data...
Loading historical data...
Loading historical data...

Documentation

Showing up to 5 results
|